X

Important NEWS



New Hub Active

Miami is our new hub! Old members can request transfer via hr@dlxairways.net

Thank you very much and have nice flight.


Deluxe Airways.

X

Tours



Hello again, we created one nice test tour for all pilots to attend. also this is ment to be testing of our tour system

Available Tours

If you find some issues please inform us.

Thank you very much and have nice flight.


Deluxe Airways.

 METAR AND TAF INFORMATION
ArrayMETAR FOR KIAD
28984855 4 KIAD 140152Z 29010KT 10SM OVC039 06/02 A3021 RMK AO2 SLP232 T00610017 KIAD 2018-11-14T01:52:00Z 38.93 -77.45 6.1 1.7 290 10 10.0 30.209646 1023.2 TRUE VFR SPECI 93.0 KIAD 140052Z 30008KT 10SM SCT040 OVC190 07/01 A3019 RMK AO2 SLP224 T00670011 KIAD 2018-11-14T00:52:00Z 38.93 -77.45 6.7 1.1 300 8 10.0 30.188976 1022.4 TRUE VFR METAR 93.0

 AIRPORT MAP

 RUNWAY INFORMATION
Runway 01C Runway length 11501 ft Runway width 150 ft
Runway elevation 286 ft Runway displaced threshold 0 ft Runway heading 1
Runway 19C Runway length 11501 ft Runway width 150 ft
Runway elevation 269 ft Runway displaced threshold 0 ft Runway heading 181
Runway 01L Runway length 11501 ft Runway width 150 ft
Runway elevation 286 ft Runway displaced threshold 0 ft Runway heading 1
Runway 19R Runway length 11501 ft Runway width 150 ft
Runway elevation 269 ft Runway displaced threshold 0 ft Runway heading 181
Runway 01R Runway length 11500 ft Runway width 150 ft
Runway elevation 312 ft Runway displaced threshold 0 ft Runway heading 1
Runway 19L Runway length 11500 ft Runway width 150 ft
Runway elevation 293 ft Runway displaced threshold 0 ft Runway heading 181
Runway 12 Runway length 10501 ft Runway width 150 ft
Runway elevation 310 ft Runway displaced threshold 0 ft Runway heading 111
Runway 30 Runway length 10501 ft Runway width 150 ft
Runway elevation 288 ft Runway displaced threshold 0 ft Runway heading 291

 AIRPORT FREQUENCIES
Type APP Name POTOMAC AP Frequency 120.45 MHZ
Type ATIS Name ATIS Frequency 134.85 MHZ
Type CLD Name CLNC DEL Frequency 135.7 MHZ
Type DEP Name POTOMAC DE Frequency 125.05 MHZ
Type GND Name GND Frequency 121.9 MHZ
Type RCO Name ARMEL RCO Frequency 113.5 MHZ
Type RMP Name RAMP CON Frequency 129.55 MHZ
Type TWR Name TWR Frequency 120.1 MHZ
Type UNIC Name UNICOM Frequency 122.95 MHZ

 AIRPORT NEAR NAVIGATION AIDS
Type VORTAC Name Armel Frequency 113500 KHZ
Type NDB Name Tille Frequency 346 KHZ



Powered by Virtual Airlines Manager [v2.6.2]

Template code change by DeluxeAir